Location: Bakhuizen
(52.8696°N, 5.4575°E)
Time: 07:34:19
(UTC+00:00)

deb Kosmos-1763 - Pass Details

Date: 11 May 2021
Orbit: 447 x 457 km, 74.0° (Epoch: 20 June)

Event Time Altitude Azimuth Distance (km) Brightness Sun altitude
Rises 20:41:30 0° 334° (NNW) 2,487 9.4 -9.8°
Reaches altitude 10° 20:43:36 10° 334° (NNW) 1,611 8.1 -10.0°
Maximum altitude 20:47:09 87° 243° (WSW) 467 3.9 -10.3°
Enters shadow 20:50:00 15° 157° (SSE) 1,319 5.7 -10.6°
